When you browse on this site, cookies collect data to enhance your experience and personalize the content and advertising you see.
Visit our Privacy Policy to learn more. By continuing to use the site, you agree to this use of cookies and data.
  • In Belgium
  • List of Countries
  • For 7 days
  • Water Temperature
  • Satellite Maps
  • Weather Map
  • Weather Widgets
  • user-avatar
    Login

    Hourly Weather Kruibeke

    Today, 20 January, Sunday

    Time Temperature Precipitation Wind Pressure Humidity
    00:00 -2°C° 0 mm 3 mps 760 mmHg 68%
    01:00 -2°C° 0 mm 3 mps 760 mmHg 68%
    02:00 -2°C° 0 mm 2 mps 760 mmHg 68%
    03:00 -2°C° 0 mm 2 mps 760 mmHg 68%
    04:00 -2°C° 0 mm 2 mps 760 mmHg 67%
    05:00 -2°C° 0 mm 2 mps 760 mmHg 67%
    06:00 -2°C° 0 mm 2 mps 760 mmHg 66%
    07:00 -2°C° 0 mm 2 mps 761 mmHg 64%
    08:00 -2°C° 0 mm 3 mps 761 mmHg 63%
    09:00 -2°C° 0 mm 3 mps 762 mmHg 61%
    10:00 -1°C° 0 mm 3 mps 762 mmHg 57%
    11:00 0°C° 0 mm 3 mps 762 mmHg 53%
    12:00 +1°C° 0 mm 3 mps 762 mmHg 49%
    13:00 +1°C° 0 mm 3 mps 763 mmHg 50%
    14:00 +1°C° 0 mm 3 mps 763 mmHg 51%
    15:00 +2°C° 0 mm 2 mps 763 mmHg 52%
    16:00 +1°C° 0 mm 2 mps 763 mmHg 55%
    17:00 -1°C° 0 mm 2 mps 764 mmHg 57%
    18:00 -2°C° 0 mm 2 mps 765 mmHg 60%
    19:00 -2°C° 0 mm 2 mps 765 mmHg 60%
    20:00 -2°C° 0 mm 2 mps 766 mmHg 59%
    21:00 -2°C° 0 mm 2 mps 766 mmHg 59%
    22:00 -2°C° 0 mm 2 mps 767 mmHg 58%
    23:00 0°C° 0 mm 1 mps 767 mmHg 57%

    Tomorrow, 21 January, Monday

    Time Temperature Precipitation Wind Pressure Humidity
    00:00 0°C° 0 mm 1 mps 767 mmHg 56%
    01:00 0°C° 0 mm 1 mps 767 mmHg 55%
    02:00 0°C° 0 mm 1 mps 767 mmHg 54%
    03:00 0°C° 0 mm 1 mps 767 mmHg 53%
    04:00 -1°C° 0 mm 0 mps 767 mmHg 52%
    05:00 -1°C° 0 mm 0 mps 768 mmHg 52%
    06:00 -1°C° 0 mm 0 mps 768 mmHg 51%
    07:00 -1°C° 0 mm 0 mps 768 mmHg 49%
    08:00 -1°C° 0 mm 0 mps 768 mmHg 48%
    09:00 0°C° 0 mm 0 mps 768 mmHg 46%
    10:00 +2°C° 0 mm 1 mps 768 mmHg 43%
    11:00 +2°C° 0 mm 1 mps 767 mmHg 41%
    12:00 +3°C° 0 mm 1 mps 767 mmHg 38%
    13:00 +3°C° 0 mm 1 mps 767 mmHg 40%
    14:00 +3°C° 0 mm 1 mps 766 mmHg 43%
    15:00 +3°C° 0 mm 1 mps 766 mmHg 45%
    16:00 +1°C° 0 mm 2 mps 766 mmHg 48%
    17:00 -1°C° 0 mm 2 mps 765 mmHg 50%
    18:00 -2°C° 0 mm 2 mps 765 mmHg 52%
    19:00 -2°C° 0 mm 2 mps 764 mmHg 53%
    20:00 -2°C° 0 mm 3 mps 764 mmHg 54%
    21:00 -2°C° 0 mm 3 mps 763 mmHg 55%
    22:00 -3°C° 0 mm 4 mps 763 mmHg 55%
    23:00 -3°C° 0 mm 4 mps 762 mmHg 55%

    Day after tomorrow, 22 January, Tuesday

    Time Temperature Precipitation Wind Pressure Humidity
    00:00 -4°C° 0 mm 5 mps 761 mmHg 55%
    01:00 -2°C° 0 mm 5 mps 759 mmHg 54%
    02:00 -3°C° 0 mm 6 mps 758 mmHg 53%
    03:00 -3°C° 0 mm 6 mps 757 mmHg 52%
    04:00 -3°C° 0.1 mm 7 mps 755 mmHg 54%
    05:00 -2°C° 0.1 mm 7 mps 754 mmHg 56%
    06:00 -2°C° 0.1 mm 7 mps 753 mmHg 58%
    07:00 -2°C° 0.7 mm 7 mps 752 mmHg 68%
    08:00 -4°C° 0.7 mm 8 mps 751 mmHg 78%
    09:00 -4°C° 0.7 mm 8 mps 751 mmHg 89%
    10:00 -3°C° 0.8 mm 6 mps 750 mmHg 90%
    11:00 -1°C° 0.8 mm 5 mps 750 mmHg 91%
    12:00 -1°C° 0.8 mm 4 mps 749 mmHg 93%
    13:00 0°C° 0.2 mm 3 mps 749 mmHg 93%
    14:00 0°C° 0.2 mm 3 mps 748 mmHg 93%
    15:00 +1°C° 0.2 mm 2 mps 748 mmHg 94%
    16:00 +1°C° 0 mm 2 mps 748 mmHg 93%
    17:00 +1°C° 0 mm 2 mps 748 mmHg 91%
    18:00 -1°C° 0 mm 2 mps 748 mmHg 90%
    19:00 -1°C° 0 mm 2 mps 748 mmHg 89%
    20:00 +1°C° 0 mm 1 mps 748 mmHg 88%
    21:00 +1°C° 0 mm 1 mps 748 mmHg 87%
    22:00 +1°C° 0 mm 1 mps 748 mmHg 88%
    23:00 +1°C° 0 mm 1 mps 749 mmHg 88%

    23 January, Wednesday

    Time Temperature Precipitation Wind Pressure Humidity
    00:00 -2°C° 0 mm 2 mps 749 mmHg 89%
    01:00 0°C° 0 mm 1 mps 749 mmHg 89%
    02:00 0°C° 0 mm 1 mps 749 mmHg 88%
    03:00 0°C° 0 mm 1 mps 749 mmHg 88%
    04:00 0°C° 0 mm 1 mps 749 mmHg 88%
    05:00 -1°C° 0 mm 1 mps 749 mmHg 88%
    06:00 -1°C° 0 mm 1 mps 749 mmHg 88%
    07:00 0°C° 0 mm 1 mps 750 mmHg 87%
    08:00 -2°C° 0 mm 2 mps 750 mmHg 87%
    09:00 -2°C° 0 mm 2 mps 751 mmHg 86%
    10:00 -1°C° 0 mm 2 mps 751 mmHg 86%
    11:00 +2°C° 0 mm 1 mps 751 mmHg 85%
    12:00 +3°C° 0 mm 1 mps 751 mmHg 85%
    13:00 +3°C° 0 mm 1 mps 751 mmHg 85%
    14:00 +3°C° 0 mm 1 mps 752 mmHg 85%
    15:00 +3°C° 0 mm 1 mps 752 mmHg 85%
    16:00 +2°C° 0 mm 1 mps 752 mmHg 86%
    17:00 +2°C° 0 mm 1 mps 753 mmHg 86%
    18:00 +1°C° 0 mm 1 mps 754 mmHg 87%
    19:00 +1°C° 0 mm 1 mps 754 mmHg 87%
    20:00 +1°C° 0 mm 1 mps 755 mmHg 88%
    21:00 +1°C° 0 mm 1 mps 755 mmHg 88%
    22:00 +1°C° 0 mm 1 mps 756 mmHg 89%
    23:00 +1°C° 0 mm 1 mps 756 mmHg 89%

    24 January, Thursday

    Time Temperature Precipitation Wind Pressure Humidity
    00:00 +1°C° 0 mm 1 mps 756 mmHg 89%
    01:00 +1°C° 0 mm 1 mps 757 mmHg 89%
    02:00 +1°C° 0 mm 1 mps 757 mmHg 89%
    03:00 +1°C° 0 mm 1 mps 757 mmHg 89%
    04:00 +1°C° 0 mm 1 mps 757 mmHg 88%
    05:00 +1°C° 0 mm 1 mps 758 mmHg 87%
    06:00 +1°C° 0 mm 1 mps 758 mmHg 86%
    07:00 +1°C° 0 mm 1 mps 759 mmHg 85%
    08:00 +1°C° 0 mm 1 mps 759 mmHg 84%
    09:00 +1°C° 0 mm 0 mps 760 mmHg 83%
    10:00 +1°C° 0 mm 0 mps 760 mmHg 83%
    11:00 +2°C° 0 mm 0 mps 760 mmHg 82%
    12:00 +3°C° 0 mm 0 mps 760 mmHg 81%
    13:00 +3°C° 0 mm 0 mps 761 mmHg 83%
    14:00 +2°C° 0 mm 0 mps 761 mmHg 85%
    15:00 +2°C° 0 mm 0 mps 761 mmHg 86%
    16:00 +1°C° 0 mm 0 mps 762 mmHg 87%
    17:00 +1°C° 0 mm 1 mps 763 mmHg 88%
    18:00 +1°C° 0 mm 1 mps 763 mmHg 89%
    19:00 0°C° 0 mm 1 mps 764 mmHg 89%
    20:00 0°C° 0 mm 1 mps 764 mmHg 89%
    21:00 0°C° 0 mm 1 mps 765 mmHg 90%
    22:00 0°C° 0 mm 1 mps 765 mmHg 89%
    23:00 0°C° 0 mm 1 mps 765 mmHg 89%

    25 January, Friday

    Time Temperature Precipitation Wind Pressure Humidity
    00:00 -1°C° 0 mm 0 mps 766 mmHg 89%
    01:00 -2°C° 0 mm 0 mps 766 mmHg 88%
    02:00 -2°C° 0 mm 0 mps 766 mmHg 88%
    03:00 -2°C° 0 mm 0 mps 766 mmHg 87%
    04:00 -2°C° 0 mm 0 mps 767 mmHg 87%
    05:00 -2°C° 0 mm 0 mps 767 mmHg 87%
    06:00 -2°C° 0 mm 0 mps 767 mmHg 86%
    07:00 -1°C° 0 mm 0 mps 768 mmHg 85%
    08:00 0°C° 0 mm 1 mps 768 mmHg 84%
    09:00 0°C° 0 mm 1 mps 768 mmHg 83%
    10:00 +1°C° 0 mm 1 mps 768 mmHg 81%
    11:00 +1°C° 0 mm 2 mps 768 mmHg 79%
    12:00 +2°C° 0 mm 2 mps 768 mmHg 78%
    13:00 +2°C° 0 mm 2 mps 768 mmHg 80%
    14:00 +2°C° 0 mm 2 mps 768 mmHg 83%
    15:00 +2°C° 0 mm 2 mps 768 mmHg 85%
    16:00 +1°C° 0 mm 2 mps 768 mmHg 86%
    17:00 +1°C° 0 mm 2 mps 768 mmHg 88%
    18:00 -1°C° 0 mm 3 mps 768 mmHg 89%
    19:00 0°C° 0 mm 3 mps 768 mmHg 88%
    20:00 0°C° 0 mm 3 mps 768 mmHg 88%
    21:00 -1°C° 0 mm 4 mps 768 mmHg 88%
    22:00 -1°C° 0 mm 4 mps 767 mmHg 88%
    23:00 -1°C° 0 mm 4 mps 767 mmHg 88%
    Show more